Volver al catálogo

TIANLIAN 1-03

ActivoComunicacionesGEO
NORAD 38730·PAYLOAD·🇨🇳 China

Lanzado Jul 25, 2012 desde Xichang Satellite Launch Center

Loading…

TLE

ActualizadoSource: Space-Track

Época: Sep 14, 2026, 08:33 UTC

1 38730U 12040A   26257.35645171 -.00000241  00000-0  00000-0 0  9990
2 38730   6.0594  62.9719 0018068 145.7127 248.7044  0.98925984 49490

Sigue TIANLIAN 1-03 en tiempo real con AllMySat

Download on the App Store